This is the latest recevied weather packets stored in our database for station/object ED5YAL-15. If no packets are shown the sender has not sent any weather packets the latest 10 day(s).
| Time | Temp. | Humidity | Pressure | Rain* | Wind** | Luminosity | Snow |
|---|---|---|---|---|---|---|---|
| 1777996902 | 20.56° C | 50% | 1014.6 hPa | - | - | - | - |
| 1777996476 | 21.67° C | 51% | 1014.4 hPa | - | - | - | - |
| 1777996001 | 21.67° C | 51% | 1014.4 hPa | - | - | - | - |
| 1777995100 | 20.56° C | 51% | 1014.5 hPa | - | - | - | - |
| 1777994201 | 19.44° C | 51% | 1014.3 hPa | - | - | - | - |
| 1777993298 | 18.33° C | 51% | 1014.6 hPa | - | - | - | - |
| 1777992400 | 19.44° C | 50% | 1014.5 hPa | - | - | - | - |
| 1777991494 | 18.89° C | 51% | 1014.7 hPa | - | - | - | - |
| 1777990593 | 20.56° C | 52% | 1014.7 hPa | - | - | - | - |
| 1777989715 | 21.11° C | 50% | 1014.9 hPa | - | - | - | - |
| 1777988814 | 20.56° C | 52% | 1014.9 hPa | - | - | - | - |
| 1777987913 | 20.56° C | 52% | 1015.1 hPa | - | - | - | - |
| 1777987012 | 21.11° C | 51% | 1014.8 hPa | - | - | - | - |
| 1777986111 | 21.67° C | 51% | 1015.3 hPa | - | - | - | - |
| 1777985211 | 22.22° C | 51% | 1015.3 hPa | - | - | - | - |
| 1777984310 | 22.22° C | 51% | 1015.4 hPa | - | - | - | - |
| 1777983409 | 21.11° C | 51% | 1015.5 hPa | - | - | - | - |
| 1777982508 | 18.33° C | 52% | 1015.5 hPa | - | - | - | - |
| 1777981607 | 18.89° C | 51% | 1015.9 hPa | - | - | - | - |
| 1777980707 | 18.89° C | 52% | 1016 hPa | - | - | - | - |
| 1777979806 | 20.56° C | 51% | 1016.1 hPa | - | - | - | - |
| 1777979162 | 19.44° C | 51% | 1016.2 hPa | - | - | - | - |
| 1777978905 | 19.44° C | 51% | 1016.2 hPa | - | - | - | - |
| 1777978485 | 19.44° C | 52% | 1016.2 hPa | - | - | - | - |
| 1777978004 | 21.11° C | 52% | 1016.1 hPa | - | - | - | - |
* Rain since midnight (hover to see other rain measurements)
** Current wind speed in m/s (hover to see current wind gust speed)